| time (UTC) | temp C | wind direction | speed KPH | gust KPH | rain 1hr cm | rain 24hr cm | rain mn cm | humidity % | barometer mb |
| 20260504214531 | 15 | 266 | 11.3 | 29.0 | 0.00 | 0.00 | 0.00 | 73 | 1009.3 |
| 20260504214007 | 15 | 188 | 12.9 | 29.0 | 0.00 | 0.00 | 0.00 | 75 | 1009.4 |
| 20260504213516 | 15 | 207 | 14.5 | 30.6 | 0.00 | 0.00 | 0.00 | 73 | 1009.3 |
| 20260504213042 | 15 | 228 | 14.5 | 30.6 | 0.00 | 0.00 | 0.00 | 73 | 1009.5 |
| 20260504212515 | 15 | 186 | 14.5 | 30.6 | 0.00 | 0.00 | 0.00 | 73 | 1009.2 |
| 20260504212014 | 15 | 198 | 11.3 | 30.6 | 0.00 | 0.00 | 0.00 | 72 | 1009.3 |
| 20260504211534 | 15 | 202 | 12.9 | 32.2 | 0.00 | 0.00 | 0.00 | 73 | 1009.3 |
| 20260504211010 | 15 | 159 | 14.5 | 32.2 | 0.00 | 0.00 | 0.00 | 74 | 1009.3 |
| 20260504210511 | 15 | 208 | 16.1 | 27.4 | 0.00 | 0.00 | 0.00 | 73 | 1009.3 |
| 20260504210030 | 14 | 161 | 14.5 | 25.7 | 0.00 | 0.00 | 0.00 | 76 | 1009.3 |
| 20260504205510 | 13 | 201 | 14.5 | 27.4 | 0.00 | 0.00 | 0.00 | 80 | 1009.3 |
| 20260504205013 | 13 | 213 | 16.1 | 27.4 | 0.00 | 0.00 | 0.00 | 80 | 1009.3 |
| 20260504204541 | 13 | 192 | 14.5 | 33.8 | 0.00 | 0.00 | 0.00 | 80 | 1009.2 |
| 20260504204014 | 13 | 180 | 16.1 | 33.8 | 0.00 | 0.00 | 0.00 | 80 | 1009.3 |
| 20260504203514 | 13 | 190 | 16.1 | 32.2 | 0.00 | 0.00 | 0.00 | 79 | 1009.2 |
| 20260504203033 | 13 | 191 | 16.1 | 35.4 | 0.00 | 0.00 | 0.00 | 79 | 1009.2 |
| 20260504202510 | 13 | 205 | 16.1 | 35.4 | 0.00 | 0.00 | 0.00 | 79 | 1009.3 |
| 20260504202014 | 13 | 194 | 16.1 | 30.6 | 0.00 | 0.00 | 0.00 | 78 | 1009.2 |
| 20260504201530 | 13 | 212 | 16.1 | 38.6 | 0.00 | 0.00 | 0.00 | 78 | 1009.2 |
| 20260504201010 | 13 | 173 | 14.5 | 38.6 | 0.00 | 0.00 | 0.00 | 78 | 1009.5 |
| 20260504200511 | 13 | 178 | 19.3 | 35.4 | 0.00 | 0.00 | 0.00 | 78 | 1009.3 |
| 20260504200028 | 13 | 107 | 16.1 | 35.4 | 0.00 | 0.00 | 0.00 | 77 | 1009.3 |
| 20260504195511 | 14 | 211 | 16.1 | 30.6 | 0.00 | 0.00 | 0.00 | 76 | 1009.3 |
| 20260504195016 | 14 | 190 | 16.1 | 30.6 | 0.00 | 0.00 | 0.00 | 77 | 1009.4 |
| 20260504194528 | 14 | 182 | 14.5 | 38.6 | 0.00 | 0.00 | 0.00 | 77 | 1009.4 |
| 20260504194010 | 14 | 188 | 19.3 | 38.6 | 0.00 | 0.00 | 0.00 | 75 | 1009.4 |
| 20260504193511 | 14 | 179 | 16.1 | 30.6 | 0.00 | 0.00 | 0.00 | 75 | 1009.5 |
| 20260504193031 | 14 | 188 | 16.1 | 30.6 | 0.00 | 0.00 | 0.00 | 75 | 1009.5 |
| 20260504192510 | 14 | 216 | 14.5 | 30.6 | 0.00 | 0.00 | 0.00 | 76 | 1009.6 |
| 20260504192013 | 14 | 162 | 12.9 | 33.8 | 0.00 | 0.00 | 0.00 | 75 | 1009.6 |
| 20260504191529 | 14 | 175 | 16.1 | 35.4 | 0.00 | 0.00 | 0.00 | 75 | 1009.9 |
| 20260504191009 | 14 | 180 | 17.7 | 35.4 | 0.00 | 0.00 | 0.00 | 75 | 1009.8 |
| 20260504190510 | 14 | 175 | 16.1 | 29.0 | 0.00 | 0.00 | 0.00 | 75 | 1009.8 |
| 20260504190030 | 14 | 145 | 14.5 | 30.6 | 0.00 | 0.00 | 0.00 | 75 | 1010.0 |
| 20260504185508 | 14 | 224 | 14.5 | 32.2 | 0.00 | 0.00 | 0.00 | 76 | 1010.1 |
| 20260504185011 | 14 | 184 | 14.5 | 33.8 | 0.00 | 0.00 | 0.00 | 75 | 1010.1 |
| 20260504184530 | 14 | 203 | 16.1 | 33.8 | 0.00 | 0.00 | 0.00 | 74 | 1010.1 |
| 20260504184011 | 15 | 186 | 16.1 | 27.4 | 0.00 | 0.00 | 0.00 | 73 | 1010.1 |
| 20260504183517 | 15 | 195 | 12.9 | 29.0 | 0.00 | 0.00 | 0.00 | 75 | 1010.1 |
| 20260504183030 | 14 | 169 | 16.1 | 29.0 | 0.00 | 0.00 | 0.00 | 75 | 1010.3 |
| 20260504182508 | 14 | 187 | 16.1 | 32.2 | 0.00 | 0.00 | 0.00 | 75 | 1010.5 |
| 20260504182015 | 14 | 182 | 17.7 | 32.2 | 0.00 | 0.00 | 0.00 | 76 | 1010.3 |
| 20260504181533 | 15 | 188 | 16.1 | 30.6 | 0.00 | 0.00 | 0.00 | 74 | 1010.5 |
| 20260504181013 | 15 | 136 | 9.7 | 30.6 | 0.00 | 0.00 | 0.00 | 75 | 1010.4 |
| 20260504180514 | 15 | 177 | 12.9 | 27.4 | 0.00 | 0.00 | 0.00 | 75 | 1010.6 |
| 20260504180030 | 15 | 175 | 12.9 | 29.0 | 0.00 | 0.00 | 0.00 | 75 | 1010.7 |
| 20260504175509 | 15 | 155 | 12.9 | 32.2 | 0.00 | 0.00 | 0.00 | 75 | 1010.7 |
| 20260504175011 | 15 | 192 | 14.5 | 32.2 | 0.00 | 0.00 | 0.00 | 74 | 1010.8 |
| 20260504174530 | 15 | 187 | 11.3 | 25.7 | 0.00 | 0.00 | 0.00 | 73 | 1010.8 |
| 20260504174010 | 15 | 145 | 14.5 | 29.0 | 0.00 | 0.00 | 0.00 | 73 | 1010.9 |
| 20260504173512 | 15 | 161 | 12.9 | 29.0 | 0.00 | 0.00 | 0.00 | 73 | 1010.9 |
| 20260504173028 | 15 | 164 | 12.9 | 27.4 | 0.00 | 0.00 | 0.00 | 73 | 1010.8 |
| 20260504172512 | 15 | 160 | 16.1 | 29.0 | 0.00 | 0.00 | 0.00 | 71 | 1010.9 |
| 20260504172017 | 16 | 182 | 14.5 | 29.0 | 0.00 | 0.00 | 0.00 | 69 | 1010.9 |
| 20260504171528 | 15 | 180 | 14.5 | 25.7 | 0.00 | 0.00 | 0.00 | 72 | 1011.1 |
| 20260504171013 | 15 | 156 | 14.5 | 24.1 | 0.00 | 0.00 | 0.00 | 72 | 1011.0 |
| 20260504170513 | 15 | 194 | 11.3 | 24.1 | 0.00 | 0.00 | 0.00 | 72 | 1011.2 |
| 20260504151013 | 15 | 262 | 6.4 | 24.1 | 0.00 | 0.00 | 0.00 | 69 | 1012.5 |
| 20260504150513 | 16 | 175 | 11.3 | 24.1 | 0.00 | 0.00 | 0.00 | 65 | 1012.5 |
| 20260504141009 | 16 | 280 | 11.3 | 25.7 | 0.00 | 0.00 | 0.00 | 45 | 1013.0 |
| 20260504140508 | 16 | 265 | 12.9 | 25.7 | 0.00 | 0.00 | 0.00 | 47 | 1012.8 |
| 20260504130512 | 15 | 241 | 12.9 | 24.1 | 0.00 | 0.00 | 0.00 | 54 | 1013.4 |
| 20260504110510 | 10 | 317 | 12.9 | 22.5 | 0.00 | 0.00 | 0.00 | 73 | 1014.1 |
| 20260504100512 | 10 | 263 | 11.3 | 27.4 | 0.00 | 0.00 | 0.00 | 69 | 1013.9 |
| 20260504081531 | 10 | 337 | 9.7 | 20.9 | 0.00 | 0.00 | 0.00 | 61 | 1013.7 |
| 20260504081010 | 10 | 278 | 12.9 | 20.9 | 0.00 | 0.00 | 0.00 | 61 | 1013.5 |
| 20260504080511 | 9 | 279 | 9.7 | 20.9 | 0.00 | 0.00 | 0.00 | 62 | 1013.6 |
| 20260504050512 | 10 | 275 | 8.0 | 17.7 | 0.00 | 0.00 | 0.00 | 56 | 1012.9 |
| 20260504045510 | 10 | 279 | 8.0 | 16.1 | 0.00 | 0.00 | 0.00 | 55 | 1012.9 |
| 20260504045013 | 10 | 325 | 6.4 | 16.1 | 0.00 | 0.00 | 0.00 | 55 | 1012.8 |
| 20260504044538 | 10 | 324 | 6.4 | 14.5 | 0.00 | 0.00 | 0.00 | 56 | 1012.7 |
| 20260504044010 | 10 | 323 | 8.0 | 14.5 | 0.00 | 0.00 | 0.00 | 54 | 1012.7 |
| 20260504043511 | 10 | 291 | 8.0 | 14.5 | 0.00 | 0.00 | 0.00 | 55 | 1012.5 |
| 20260504043029 | 10 | 274 | 6.4 | 14.5 | 0.00 | 0.00 | 0.00 | 54 | 1012.6 |
| 20260504042509 | 10 | 360 | 8.0 | 14.5 | 0.00 | 0.00 | 0.00 | 53 | 1012.6 |
| 20260504042011 | 10 | 311 | 6.4 | 12.9 | 0.00 | 0.00 | 0.00 | 53 | 1012.4 |
| 20260504041531 | 10 | 250 | 4.8 | 16.1 | 0.00 | 0.00 | 0.00 | 54 | 1012.4 |
| 20260504041010 | 10 | 360 | 6.4 | 16.1 | 0.00 | 0.00 | 0.00 | 54 | 1012.6 |
| 20260504040514 | 10 | 309 | 6.4 | 16.1 | 0.00 | 0.00 | 0.00 | 53 | 1012.3 |
| 20260504040038 | 10 | 360 | 6.4 | 17.7 | 0.00 | 0.00 | 0.00 | 54 | 1012.4 |
| 20260504035510 | 10 | 277 | 8.0 | 17.7 | 0.00 | 0.00 | 0.00 | 53 | 1012.3 |
| 20260504035011 | 10 | 360 | 6.4 | 14.5 | 0.00 | 0.00 | 0.00 | 53 | 1012.4 |
| 20260504034531 | 10 | 292 | 4.8 | 14.5 | 0.00 | 0.00 | 0.00 | 53 | 1012.3 |
| 20260504034010 | 10 | 219 | 6.4 | 12.9 | 0.00 | 0.00 | 0.00 | 52 | 1012.4 |
| 20260504033510 | 11 | 243 | 4.8 | 17.7 | 0.00 | 0.00 | 0.00 | 53 | 1012.2 |
| 20260504033032 | 11 | 274 | 8.0 | 17.7 | 0.00 | 0.00 | 0.00 | 52 | 1012.1 |
| 20260504032510 | 11 | 288 | 6.4 | 16.1 | 0.00 | 0.00 | 0.00 | 51 | 1012.2 |
| 20260504032016 | 11 | 233 | 6.4 | 16.1 | 0.00 | 0.00 | 0.00 | 51 | 1012.2 |
| 20260504031532 | 11 | 279 | 8.0 | 17.7 | 0.00 | 0.00 | 0.00 | 51 | 1012.2 |
| 20260504031010 | 11 | 307 | 6.4 | 17.7 | 0.00 | 0.00 | 0.00 | 51 | 1012.2 |
| 20260504030511 | 11 | 236 | 9.7 | 17.7 | 0.00 | 0.00 | 0.00 | 51 | 1012.2 |
| 20260504030029 | 11 | 257 | 9.7 | 17.7 | 0.00 | 0.00 | 0.00 | 50 | 1012.2 |
| 20260504025507 | 11 | 277 | 9.7 | 17.7 | 0.00 | 0.00 | 0.00 | 50 | 1012.2 |
| 20260504025013 | 11 | 304 | 8.0 | 17.7 | 0.00 | 0.00 | 0.00 | 52 | 1012.2 |
| 20260504024530 | 11 | 270 | 8.0 | 17.7 | 0.00 | 0.00 | 0.00 | 52 | 1012.1 |
| 20260504024012 | 11 | 287 | 8.0 | 17.7 | 0.00 | 0.00 | 0.00 | 52 | 1012.1 |
| 20260504023511 | 11 | 284 | 8.0 | 17.7 | 0.00 | 0.00 | 0.00 | 52 | 1012.2 |
| 20260504023030 | 11 | 306 | 6.4 | 16.1 | 0.00 | 0.00 | 0.00 | 50 | 1012.2 |
| 20260504022514 | 11 | 241 | 8.0 | 16.1 | 0.00 | 0.00 | 0.00 | 50 | 1012.1 |
| 20260504022014 | 11 | 281 | 6.4 | 17.7 | 0.00 | 0.00 | 0.00 | 51 | 1012.2 |
| 20260504021530 | 11 | 259 | 6.4 | 17.7 | 0.00 | 0.00 | 0.00 | 51 | 1012.1 |
| 20260504021009 | 11 | 260 | 8.0 | 17.7 | 0.00 | 0.00 | 0.00 | 49 | 1012.2 |
| 20260504020511 | 12 | 313 | 6.4 | 19.3 | 0.00 | 0.00 | 0.00 | 48 | 1012.1 |
| 20260504020030 | 12 | 248 | 9.7 | 19.3 | 0.00 | 0.00 | 0.00 | 48 | 1012.2 |
| 20260504015511 | 12 | 277 | 8.0 | 16.1 | 0.00 | 0.00 | 0.00 | 48 | 1012.2 |
| 20260504015013 | 12 | 256 | 8.0 | 16.1 | 0.00 | 0.00 | 0.00 | 48 | 1012.1 |
| 20260504014530 | 12 | 261 | 8.0 | 16.1 | 0.00 | 0.00 | 0.00 | 48 | 1012.1 |
| 20260504014011 | 12 | 304 | 6.4 | 16.1 | 0.00 | 0.00 | 0.00 | 48 | 1012.0 |
| 20260504013511 | 12 | 254 | 6.4 | 14.5 | 0.00 | 0.00 | 0.00 | 49 | 1012.0 |
| 20260504013040 | 12 | 273 | 6.4 | 14.5 | 0.00 | 0.00 | 0.00 | 51 | 1011.9 |
| 20260504012516 | 12 | 225 | 4.8 | 14.5 | 0.00 | 0.00 | 0.00 | 52 | 1011.8 |
| 20260504012007 | 12 | 281 | 4.8 | 14.5 | 0.00 | 0.00 | 0.00 | 51 | 1011.8 |
| 20260504011530 | 12 | 290 | 6.4 | 14.5 | 0.00 | 0.00 | 0.00 | 51 | 1011.9 |
| 20260504011012 | 12 | 269 | 6.4 | 12.9 | 0.00 | 0.00 | 0.00 | 52 | 1011.8 |
| 20260504010516 | 12 | 273 | 4.8 | 12.9 | 0.00 | 0.00 | 0.00 | 51 | 1011.6 |
| 20260504010030 | 12 | 261 | 4.8 | 12.9 | 0.00 | 0.00 | 0.00 | 50 | 1011.5 |
| 20260504005509 | 12 | 274 | 3.2 | 11.3 | 0.00 | 0.00 | 0.00 | 51 | 1011.5 |
| 20260504005011 | 12 | 286 | 4.8 | 12.9 | 0.00 | 0.00 | 0.00 | 49 | 1011.4 |
| 20260504004528 | 12 | 271 | 6.4 | 12.9 | 0.00 | 0.00 | 0.00 | 49 | 1011.4 |
| 20260504004008 | 12 | 303 | 4.8 | 12.9 | 0.00 | 0.00 | 0.00 | 49 | 1011.3 |
| 20260504003515 | 12 | 253 | 4.8 | 11.3 | 0.00 | 0.00 | 0.00 | 47 | 1011.4 |
| 20260504003033 | 13 | 252 | 4.8 | 12.9 | 0.00 | 0.00 | 0.00 | 47 | 1011.2 |
| 20260504002509 | 13 | 283 | 6.4 | 12.9 | 0.00 | 0.00 | 0.00 | 43 | 1011.1 |
| 20260504002013 | 13 | 281 | 4.8 | 11.3 | 0.00 | 0.00 | 0.00 | 45 | 1011.1 |
| 20260504001529 | 13 | 281 | 3.2 | 9.7 | 0.00 | 0.00 | 0.00 | 45 | 1011.0 |
| 20260504001011 | 13 | 278 | 3.2 | 9.7 | 0.00 | 0.00 | 0.00 | 45 | 1011.0 |
| 20260504000513 | 13 | 272 | 3.2 | 9.7 | 0.00 | 0.00 | 0.00 | 45 | 1011.0 |
| 20260504000031 | 13 | 257 | 3.2 | 11.3 | 0.00 | 0.00 | 0.00 | 44 | 1010.8 |
| 20260503235510 | 13 | 269 | 4.8 | 12.9 | 0.00 | 0.00 | 0.00 | 42 | 1010.8 |
| 20260503235010 | 13 | 294 | 4.8 | 12.9 | 0.00 | 0.00 | 0.00 | 40 | 1010.9 |
| 20260503234531 | 13 | 281 | 3.2 | 19.3 | 0.00 | 0.00 | 0.00 | 41 | 1010.7 |
| 20260503234007 | 14 | 325 | 3.2 | 19.3 | 0.00 | 0.00 | 0.00 | 41 | 1010.7 |
| 20260503233511 | 14 | 321 | 9.7 | 19.3 | 0.00 | 0.00 | 0.00 | 43 | 1010.6 |
| 20260503233035 | 14 | 319 | 8.0 | 19.3 | 0.00 | 0.00 | 0.00 | 40 | 1010.6 |
| 20260503232509 | 14 | 277 | 6.4 | 19.3 | 0.00 | 0.00 | 0.00 | 39 | 1010.6 |
| 20260503232010 | 14 | 313 | 8.0 | 20.9 | 0.00 | 0.00 | 0.00 | 39 | 1010.7 |
| 20260503231528 | 14 | 303 | 8.0 | 24.1 | 0.00 | 0.00 | 0.00 | 38 | 1010.6 |
| 20260503231011 | 14 | 240 | 12.9 | 24.1 | 0.00 | 0.00 | 0.00 | 37 | 1010.6 |
| 20260503230510 | 14 | 333 | 12.9 | 24.1 | 0.00 | 0.00 | 0.00 | 39 | 1010.5 |
| 20260503230029 | 15 | 308 | 12.9 | 24.1 | 0.00 | 0.00 | 0.00 | 43 | 1010.4 |
| 20260503225513 | 15 | 327 | 14.5 | 29.0 | 0.00 | 0.00 | 0.00 | 36 | 1010.3 |
| 20260503225011 | 15 | 304 | 12.9 | 33.8 | 0.00 | 0.00 | 0.00 | 36 | 1010.3 |
| 20260503224531 | 15 | 303 | 17.7 | 33.8 | 0.00 | 0.00 | 0.00 | 41 | 1010.3 |
| 20260503224016 | 15 | 314 | 6.4 | 22.5 | 0.00 | 0.00 | 0.00 | 38 | 1010.3 |
| 20260503223512 | 15 | 279 | 9.7 | 22.5 | 0.00 | 0.00 | 0.00 | 38 | 1010.2 |
| 20260503223032 | 15 | 281 | 6.4 | 22.5 | 0.00 | 0.00 | 0.00 | 35 | 1010.2 |
| 20260503222509 | 15 | 319 | 11.3 | 22.5 | 0.00 | 0.00 | 0.00 | 38 | 1010.2 |
| 20260503222011 | 15 | 262 | 9.7 | 22.5 | 0.00 | 0.00 | 0.00 | 35 | 1010.1 |
| 20260503221531 | 15 | 348 | 6.4 | 17.7 | 0.00 | 0.00 | 0.00 | 36 | 1010.2 |
| 20260503221010 | 15 | 324 | 8.0 | 25.7 | 0.00 | 0.00 | 0.00 | 39 | 1010.2 |
| 20260503220510 | 15 | 352 | 4.8 | 29.0 | 0.00 | 0.00 | 0.00 | 37 | 1010.2 |
| 20260503220028 | 15 | 306 | 19.3 | 29.0 | 0.00 | 0.00 | 0.00 | 39 | 1010.2 |
| 20260503215511 | 15 | 306 | 9.7 | 29.0 | 0.00 | 0.00 | 0.00 | 39 | 1010.3 |
| 20260503215016 | 15 | 337 | 12.9 | 38.6 | 0.00 | 0.00 | 0.00 | 39 | 1010.1 |